Showing default

OAO 1, 2142

Orbit data source: Space-Track

OAO 1, 2142 is a payload satellite owned by GSFC (US) in LEO that was launched on Fri, 08 Apr 1966 UTC via an ATLAS SLV-3 AGENA D launch vehicle from the Air Force Eastern Test Range (AFETR). Payload-class satellites include a variety of spacecraft equipped with specific instruments for various scientific and technological missions. These include communications satellites like Starlink; space stations such as the ISS; scientific satellites like the Hubble; Earth observation satellites from companies like Planet Labs, Umbra, and HawkEye 360; GPS; miniature CubeSats for education and research; and military/defense satellites.

Loading next visibility...
Identifier
2142, 1966-031A
Orbit
LEO
Country
Flag of USUS
Related business
Manufacturer
Grummann
Mission
Spacecraft
Bus & Motor
OAO, Unknown motor
Mass
1,769 kg wet, 1,769 kg dry
Launch date (UTC)
1966-04-08 (60 years ago)
Launch vehicle
ATLAS SLV-3 AGENA D
Launch site
Air Force Eastern Test Range (AFETR)
Object type
Payload
Rocket body
Debris
Shape & HBR
Unknown
Radar Cross Section
Large (>1 m²)

Expand to show TLE details & history
Last TLE update: 8 hours ago

TLE from 8 hours ago
0 OAO 1
1 02142U 66031A   26104.84867243  .00000063  00000-0  28781-4 0  9999
2 02142  35.0467 316.5024 0006701 165.9011 194.1865 14.34683175141983
Epoch: 2026-04-14T20:22Z
TLE epoch observation values (Epoch: 2026-04-14T20:22:05.297Z)
Latitude
-0°
Longitude
167.96129°
Altitude
779.721 km
Speed
7.464 km/s
True Right ascension
21h 06m 00s
True Declination
0° 00' 00"
Sunlit
Object was in daylight at epoch
Visualization orbit readout
Latitude
Unknown
Longitude
Unknown
Altitude
Unknown
Speed
Unknown
Apparent Right ascension
Unknown
Apparent Declination
Unknown
Sunlit
N/A
Visualization observer readout
Local Sidereal Time
11:24:03
Azimuth
Unknown
Elevation
Unknown
Doppler factor
Unknown
Orbital elements
Apogee altitude
784.032 km
Perigee altitude
774.44 km
Semi-major axis
7,157.373 km
Eccentricity
0.00067
Inclination
35.0467°
RAAN
316.5024°
Arg. of periapsis
165.9011°
True anomaly
194.1677°
Mean anomaly
194.1865°
Eccentric anomaly
194.1771°
Mean motion
3.58437 °/min
Orbital period
100.44 mins
BSTAR
0.000028781
Loading maneuver chart data...
Computing Atmospheric mass density...
Loading historical data...
Loading historical data...
Loading historical data...
Loading historical data...
Loading historical data...
Loading historical data...
Loading historical data...
Other satellites on launch #31 in the year 1966 (1966-04-08 UTC)

Documentation

Showing up to 5 results
|